sat.trackr.live / text

‹ back to catalog

STARLINK-4450

NORAD 53491 · 2022-099AC

PAYLOAD ACTIVE UNKNOWN

§ Identity

Operator
Country
US
Launch date
2022-08-12
Launch site
AFWTR
Launch vehicle
Mass (kg)
RCS (m²)

Purposes: comms

External: N2YO · Heavens-Above · Gunter

§ Orbital elements

Epoch: 2026-05-25T04:00:03.998880Z

Period
93.07 min
Inclination
97.6037°
Eccentricity
0.0001275
Mean motion
15.47300340 rev/d
Perigee alt
423.8 km
Apogee alt
425.5 km
Semi-major
6,802.8 km
B*
1.2924e-2
RAAN
267.5370°
Arg perigee
83.1366°
Mean anomaly
41.1708°
Rev number
578

§ Raw data

STARLINK-44501 53491U 22099AC  26145.16671295  .00711738  00000+0  12924-1 0  99942 53491  97.6037 267.5370 0001275  83.1366  41.1708 15.47300340  5786

JSON: /api/v1/satellites/53491 · /tle

For live sub-satellite position, see the globe view (requires WebGL).

§ Visibility from observer

Set your observer location to see the next 7 days of passes ≥ 10°. The values pass through the URL so the page stays shareable.

No JS? Fill the form by hand. The geolocation button needs JavaScript.